This demonstration page uses our WeatherBlox Daily Observations layout. Learn more.

Left ArrowRight Arrow

Hourly Observations for April 26, 2021

Temp ( °F °C ) Dew Point ( °F °C ) Humidity (%) Winds ( mph kmh ) Pressure ( in mb ) Visibility ( mi km ) Precip ( " mm )
12:59 am 00:59 Clear 57 13.9 46 7.8 67 67 W 5 7 29.98 1015 10 16 0.00 0.00
1:59 am 01:59 Clear 51 10.6 46 7.8 83 83 W 5 7 29.98 1015 10 16 0.00 0.00
2:59 am 02:59 Mostly Clear 56 13.3 46 7.8 70 70 WSW 6 9 29.99 1016 10 16 0.00 0.00
3:59 am 03:59 Partly Cloudy 55 12.8 45 7.2 69 69 NW 8 13 30.00 1016 10 16 0.00 0.00
4:59 am 04:59 Partly Cloudy 55 12.8 45 7.2 69 69 NNW 10 17 30.01 1016 10 16 0.00 0.00
5:59 am 05:59 Mostly Clear 55 12.8 42 5.6 62 62 N 13 20 30.05 1018 10 16 0.00 0.00
6:59 am 06:59 Mostly Sunny 55 12.8 41 5 59 59 N 10 17 30.08 1019 10 16 0.00 0.00
7:59 am 07:59 Sunny 56 13.3 35 1.7 46 46 N 13 20 30.11 1020 10 16 0.00 0.00
8:59 am 08:59 Sunny 57 13.9 27 -2.8 32 32 N 13 20 30.13 1020 10 16 0.00 0.00
9:59 am 09:59 Sunny 58 14.4 32 0 38 38 N 10 17 30.15 1021 10 16 0.00 0.00
10:59 am 10:59 Sunny 60 15.6 33 0.6 36 36 N 8 13 30.16 1021 10 16 0.00 0.00
11:59 am 11:59 Sunny 61 16.1 32 0 34 34 NNW 7 11 30.15 1021 10 16 0.00 0.00
12:59 pm 12:59 Sunny 64 17.8 31 -0.6 29 29 W 12 19 30.14 1021 10 16 0.00 0.00
1:59 pm 13:59 Sunny 66 18.9 32 0 28 28 WNW 13 20 30.14 1021 10 16 0.00 0.00
2:59 pm 14:59 Sunny 66 18.9 35 1.7 32 32 N 8 13 30.12 1020 10 16 0.00 0.00
3:59 pm 15:59 Sunny 64 17.8 39 3.9 40 40 E 7 11 30.11 1020 10 16 0.00 0.00
4:59 pm 16:59 Mostly Sunny 63 17.2 39 3.9 41 41 ENE 9 15 30.10 1019 10 16 0.00 0.00
5:59 pm 17:59 Mostly Sunny 63 17.2 37 2.8 38 38 ENE 8 13 30.11 1020 10 16 0.00 0.00
6:59 pm 18:59 Partly Cloudy 62 16.7 33 0.6 34 34 VRB 7 11 30.11 1020 10 16 0.00 0.00
7:59 pm 19:59 Mostly Clear 56 13.3 38 3.3 51 51 ESE 3 6 30.12 1020 10 16 0.00 0.00
8:59 pm 20:59 Clear 55 12.8 39 3.9 55 55 Calm 30.14 1021 10 16 0.00 0.00
9:59 pm 21:59 Clear 51 10.6 38 3.3 61 61 S 5 7 30.16 1021 10 16 0.00 0.00
10:59 pm 22:59 Clear 54 12.2 41 5 62 62 S 8 13 30.16 1022 10 16 0.00 0.00
11:59 pm 23:59 Clear 54 12.2 40 4.4 59 59 S 7 11 30.16 1021 10 16 0.00 0.00

Powered by AerisWeather